Location: Berg
(47.2344°N, 9.5296°E)
Time: 17:22:54
(UTC+00:00)

YUBILEINY - Visible Passes

Search period start: 03 December 2021 00:00
Search period end: 13 December 2021 00:00
Orbit: 1478 x 1508 km, 82.5° (Epoch: 03 December)

Date Brightness Start Highest point End Pass type
(mag) Time Alt. Az. Time Alt. Az. Time Alt. Az.
03 Dec ? 00:34:28 10° N 00:34:38 11° N 00:34:38 11° N visible
03 Dec ? 17:36:23 10° W 17:42:14 19° NW 17:48:09 10° NNW visible
04 Dec ? 16:44:04 10° SW 16:51:38 32° WNW 16:59:19 10° N visible
05 Dec ? 15:53:00 10° SSW 16:01:28 53° WNW 16:10:03 10° N visible
05 Dec ? 17:57:07 10° WNW 18:00:51 13° NW 18:04:36 10° NNW visible
06 Dec ? 17:03:26 10° WSW 17:09:55 22° WNW 17:16:29 10° N visible
07 Dec ? 16:11:32 10° SW 16:19:28 37° WNW 16:27:29 10° N visible
08 Dec ? 17:23:38 10° W 17:28:26 15° NW 17:33:16 10° NNW visible
09 Dec ? 16:30:38 10° WSW 16:37:39 26° WNW 16:44:45 10° N visible
10 Dec ? 17:46:11 10° NW 17:47:12 10° NW 17:48:12 10° NW visible
11 Dec ? 16:50:27 10° W 16:56:03 18° NW 17:01:44 10° NNW visible
12 Dec ? 15:57:58 10° WSW 16:05:25 30° WNW 16:12:58 10° N visible
